TimeCDT,TemperatureF,Dew PointF,Humidity,Sea Level PressureIn,VisibilityMPH,Wind Direction,Wind SpeedMPH,Gust SpeedMPH,PrecipitationIn,Events,Conditions,WindDirDegrees,DateUTC
12:53 AM,37.0,34.0,89,30.02,10.0,WSW,11.5,-,N/A,,Overcast,240,2013-10-19 05:53:00
1:53 AM,36.0,33.1,89,30.01,10.0,WSW,10.4,-,N/A,,Mostly Cloudy,240,2013-10-19 06:53:00
2:53 AM,37.0,33.1,86,30.00,10.0,WSW,13.8,21.9,N/A,,Overcast,250,2013-10-19 07:53:00
3:53 AM,36.0,32.0,86,29.98,10.0,WSW,11.5,-,N/A,,Partly Cloudy,240,2013-10-19 08:53:00
4:53 AM,34.0,32.0,92,29.97,10.0,WSW,10.4,-,N/A,,Clear,240,2013-10-19 09:53:00
5:53 AM,33.1,30.9,92,29.97,10.0,WSW,9.2,-,N/A,,Clear,240,2013-10-19 10:53:00
6:16 AM,33.8,30.2,87,29.94,10.0,WSW,9.2,-,N/A,,Scattered Clouds,240,2013-10-19 11:16:00
6:25 AM,33.8,30.2,87,29.94,9.0,WSW,9.2,-,N/A,,Mostly Cloudy,240,2013-10-19 11:25:00
6:53 AM,34.0,32.0,92,29.97,7.0,WSW,10.4,-,N/A,,Overcast,250,2013-10-19 11:53:00
7:53 AM,34.0,32.0,92,29.97,4.0,WSW,8.1,-,N/A,,Overcast,240,2013-10-19 12:53:00
8:53 AM,36.0,34.0,93,29.97,5.0,SW,11.5,-,N/A,,Overcast,230,2013-10-19 13:53:00
9:36 AM,37.4,33.8,87,29.94,9.0,SW,11.5,-,N/A,,Partly Cloudy,220,2013-10-19 14:36:00
9:53 AM,39.9,34.0,79,29.96,10.0,SW,12.7,-,N/A,,Partly Cloudy,220,2013-10-19 14:53:00
10:53 AM,46.0,36.0,68,29.94,10.0,SW,11.5,18.4,N/A,,Clear,220,2013-10-19 15:53:00
11:53 AM,51.1,33.1,50,29.93,10.0,WSW,16.1,23.0,N/A,,Clear,240,2013-10-19 16:53:00
12:53 PM,55.0,33.1,43,29.90,10.0,WSW,15.0,-,N/A,,Partly Cloudy,240,2013-10-19 17:53:00
1:53 PM,57.9,30.9,36,29.86,10.0,WSW,17.3,25.3,N/A,,Clear,240,2013-10-19 18:53:00
2:53 PM,59.0,30.9,35,29.85,10.0,WSW,18.4,26.5,N/A,,Partly Cloudy,240,2013-10-19 19:53:00
3:53 PM,60.1,30.9,33,29.84,10.0,WSW,18.4,26.5,N/A,,Overcast,240,2013-10-19 20:53:00
4:53 PM,59.0,30.9,35,29.84,10.0,WSW,13.8,21.9,N/A,,Overcast,240,2013-10-19 21:53:00
5:53 PM,59.0,33.1,38,29.84,10.0,West,9.2,-,N/A,,Overcast,260,2013-10-19 22:53:00
6:53 PM,52.0,30.9,45,29.88,10.0,NNW,6.9,-,N/A,,Clear,330,2013-10-19 23:53:00
7:53 PM,50.0,28.9,44,29.88,10.0,Calm,Calm,-,N/A,,Clear,0,2013-10-20 00:53:00
8:53 PM,48.0,28.9,48,29.88,10.0,Calm,Calm,-,N/A,,Clear,0,2013-10-20 01:53:00
9:53 PM,37.9,32.0,79,29.89,10.0,SSW,8.1,-,N/A,,Clear,200,2013-10-20 02:53:00
10:53 PM,43.0,33.1,68,29.88,10.0,SSW,6.9,-,N/A,,Clear,200,2013-10-20 03:53:00
11:53 PM,45.0,33.1,63,29.86,10.0,SSW,5.8,-,N/A,,Clear,200,2013-10-20 04:53:00